Change the Weather History Date:

Tuesday, January 7, 2014

  Actual Average Record
Temperature  
Mean Temperature -3 °F 28 °F  
Max Temperature 4 °F 34 °F 65 °F (2008)
Min Temperature -11 °F 22 °F -11 °F (2014)
Degree Days  
Heating Degree Days 68 37  
Month to date heating degree days 332 258  
Since 1 July heating degree days 2496 2365  
Cooling Degree Days 0 0  
Month to date cooling degree days 0 0  
Year to date cooling degree days 0 0  
Moisture  
Dew Point -14 °F    
Average Humidity 61    
Maximum Humidity 65    
Minimum Humidity 56    
Precipitation  
Precipitation 0.00 in 0.09 in 1.30 in (1998)
Month to date precipitation 0.84 0.69  
Year to date precipitation 0.84 0.69  
Snow  
Snow 0.00 in 0.60 in - ()
Month to date snowfall 9.0 4.1  
Since 1 July snowfall 31.2 22.7  
Snow Depth 4.00 in    
Sea Level Pressure  
Sea Level Pressure 30.34 in    
Wind  
Wind Speed 18 mph (SW)    
Max Wind Speed 28 mph    
Max Gust Speed 36 mph    
Visibility 9 miles    
Events Snow    
T = Trace of Precipitation, MM = Missing Value Source: NWS Daily Summary

Daily Weather History Graph

Daily Weather History Graph

Search for Another Location

Airport or City:

Trip Planner

Search our weather history database for the weather conditions in past years. The results will help you decide how hot, cold, wet, or windy it might be!

Date:

Astronomy

Jan. 07, 2014 Rise Set
Actual Time 7:53 AM EST 5:14 PM EST
Civil Twilight 7:22 AM EST 5:45 PM EST
Nautical Twilight 6:48 AM EST 6:19 PM EST
Astronomical Twilight 6:14 AM EST 6:53 PM EST
Moon 11:36 AM EST (1/7) No Moon Set
Length of Visible Light 10h 22m
Length of Day
9h 20m
Waxing Crescent, 45% of the Moon is Illuminated
Jan 7
Waxing Crescent
Jan 7
First Quarter
Jan 15
Full
Jan 24
Last Quarter
Jan 30
New

Hourly Weather History & Observations

Time (EST) Temp. Windchill Dew Point Humidity Pressure Visibility Wind Dir Wind Speed Gust Speed Precip Events Conditions
12:51 AM -11.0 °F -39.4 °F -20.0 °F 64% 30.26 in 10.0 mi SW 26.5 mph 31.1 mph N/A   Mostly Cloudy
1:15 AM -11.0 °F -35.6 °F -20.0 °F 64% 30.19 in 10.0 mi SW 18.4 mph 29.9 mph N/A   Scattered Clouds
1:51 AM -11.0 °F -37.4 °F -20.0 °F 64% 30.27 in 10.0 mi WSW 21.9 mph 28.8 mph N/A   Partly Cloudy
2:51 AM -9.9 °F -32.1 °F -20.0 °F 61% 30.29 in 10.0 mi SW 15.0 mph 26.5 mph N/A   Mostly Cloudy
3:51 AM -9.9 °F -34.8 °F -18.9 °F 65% 30.30 in 10.0 mi SW 19.6 mph 28.8 mph N/A   Partly Cloudy
4:51 AM -9.0 °F -32.4 °F -18.9 °F 62% 30.30 in 10.0 mi SW 17.3 mph 27.6 mph N/A   Scattered Clouds
5:51 AM -9.0 °F -33.6 °F -18.0 °F 65% 30.30 in 10.0 mi SW 19.6 mph 26.5 mph N/A   Partly Cloudy
6:28 AM -9.0 °F -33.0 °F -18.0 °F 65% 30.25 in 10.0 mi SW 18.4 mph - N/A   Mostly Cloudy
6:51 AM -8.0 °F -29.6 °F -17.0 °F 65% 30.32 in 10.0 mi SW 15.0 mph 24.2 mph N/A   Overcast
7:26 AM -8.0 °F -31.0 °F -18.0 °F 61% 30.26 in 10.0 mi SW 17.3 mph 25.3 mph N/A   Scattered Clouds
7:51 AM -8.0 °F -32.2 °F -18.0 °F 61% 30.35 in 10.0 mi SW 19.6 mph 31.1 mph N/A   Partly Cloudy
8:12 AM -8.0 °F -31.6 °F -18.0 °F 61% 30.27 in 0.5 mi SW 18.4 mph 27.6 mph N/A   Haze
8:14 AM -8.0 °F -31.6 °F -18.0 °F 61% 30.27 in 10.0 mi SW 18.4 mph 27.6 mph N/A   Partly Cloudy
8:51 AM -7.1 °F -31.6 °F -17.0 °F 62% 30.36 in 10.0 mi SW 20.7 mph 27.6 mph N/A   Clear
9:51 AM -5.1 °F -29.0 °F -16.1 °F 59% 30.37 in 10.0 mi SW 20.7 mph 32.2 mph N/A   Clear
10:51 AM -2.9 °F -28.6 °F -15.0 °F 56% 30.39 in 9.0 mi SW 26.5 mph 33.4 mph N/A   Partly Cloudy
11:51 AM -0.9 °F -25.9 °F -11.9 °F 60% 30.40 in 3.0 mi WSW 26.5 mph 33.4 mph N/A Snow Blowing Snow
12:51 PM -0.0 °F -23.3 °F -11.0 °F 60% 30.37 in 4.0 mi SW 23.0 mph 32.2 mph N/A Snow Blowing Snow
1:51 PM 1.0 °F -21.9 °F -11.0 °F 57% 30.37 in 9.0 mi SW 23.0 mph 33.4 mph N/A   Mostly Cloudy
2:20 PM 1.9 °F -20.7 °F -9.9 °F 58% 30.29 in 10.0 mi SW 23.0 mph 31.1 mph N/A   Scattered Clouds
2:51 PM 1.9 °F -19.8 °F -9.9 °F 58% 30.37 in 10.0 mi SW 20.7 mph 27.6 mph N/A   Scattered Clouds
3:51 PM 1.9 °F -19.2 °F -9.9 °F 58% 30.37 in 10.0 mi SW 19.6 mph 26.5 mph N/A   Mostly Cloudy
4:51 PM 3.0 °F -17.3 °F -9.0 °F 57% 30.38 in 10.0 mi SW 18.4 mph - N/A   Partly Cloudy
5:51 PM 3.0 °F -14.1 °F -8.0 °F 60% 30.38 in 10.0 mi SW 12.7 mph 24.2 mph N/A   Clear
6:51 PM 3.9 °F -13.0 °F -8.0 °F 58% 30.40 in 10.0 mi SW 12.7 mph - N/A   Partly Cloudy
7:51 PM 3.9 °F -11.3 °F -7.1 °F 60% 30.41 in 10.0 mi SW 10.4 mph - N/A   Partly Cloudy
8:51 PM 3.9 °F -10.4 °F -7.1 °F 60% 30.42 in 10.0 mi SSW 9.2 mph - N/A   Partly Cloudy
9:51 PM 3.9 °F -10.4 °F -7.1 °F 60% 30.44 in 10.0 mi SSW 9.2 mph - N/A   Clear
10:51 PM 3.9 °F -9.4 °F -7.1 °F 60% 30.44 in 10.0 mi South 8.1 mph - N/A   Clear
11:51 PM 3.9 °F -10.4 °F -6.0 °F 64% 30.44 in 10.0 mi South 9.2 mph - N/A   Clear